TIMESTAMP,CO2_1_1_1,H2O_1_1_1,TAU_1_1_1,TAU_SSITC_TEST_1_1_1,H_1_1_1,H_SSITC_TEST_1_1_1,LE_1_1_1,LE_SSITC_TEST_1_1_1,FC_1_1_1,FC_SSITC_TEST_1_1_1,WD_0_0_1,WS_0_0_1,WS_MAX_0_0_1,U_SIGMA_0_0_1,V_SIGMA_0_0_1,W_SIGMA_0_0_1,USTAR_0_0_1,MO_LENGTH_0_0_1,ZL_0_0_1,FETCH_MAX_0_0_1,FETCH_70_0_0_1,FETCH_80_0_0_1,FETCH_90_0_0_1,PA_0_0_1,RH_0_0_1,TA_0_0_1,VPD_0_0_1,T_SONIC_0_0_1,T_SONIC_SIGMA_0_0_1
[yyyymmddHHMMSS],[mmolCO2 mol-1],[mmolH2O mol-1],[kg m-1 s-2],[#],[W m-2],[#],[W m-2],[#],[umolCO2 m-2 s-1],[#],[Decimal degrees],[m s-1],[m s-1],[m s-1],[m s-1],[m s-1],[m s-1],[m],[#],[m],[m],[m],[m],[kPa],[%],[deg C],[hPa],[deg C],[deg C]
20221020003000,421.33098477519485,5.2904888321364467,0.13821458582433688,0,-29.186118499377915,0,7.9688641960638726,0,1.2557830170751800,0,245.59482837970444,2.8849482276697018,5.4036758943945218,0.70264481065979678,0.55127088772406441,0.39661984840643411,0.34148411228703429,113.07719629553930,0.16802680489478600,111.08406058167220,203.09709118730348,243.05534643032883,304.27645173414140,93.222664599047775,79.140000000000001,0.31172413793103715,1.3003254171465266,0.88942456494214639,0.20751260828119714
20221020010000,421.71127621645121,5.2943898795995503,0.14875204810408221,0,-34.698141571770336,0,5.0802736343812143,1,0.92268276005227901,0,243.82509697052981,2.7584175355192713,5.7924114359713972,0.79330427395768932,0.64463849855994404,0.46030423044722135,0.35424780747621754,106.15451422854406,0.17898438081581894,101.54643087206806,185.65926220716801,222.18671882477199,278.15140633342173,93.187725501302083,79.891666666666666,0.18633333333332303,1.2421261508014094,0.74357857428663010,0.18445502771300767
20221020013000,421.76121988909085,5.1223992588565270,0.26803851247095062,0,-40.059938015812385,0,15.945478825957450,0,2.0502352946550597,0,249.67034944094388,3.4465119572491605,7.2321729696872152,1.0217961631703512,0.77906200186462504,0.58233307176342519,0.47561021662804659,222.44212036410210,8.5415477828120173E-002,106.49241496516439,194.70209857006807,233.00868437853001,291.69922302557785,93.146509574652796,77.297666666666672,0.18000000000000682,1.4017178453509656,0.74181604682075886,0.17976112951086864
20221020020000,421.89894359168665,4.8851412436159398,0.61345882339311097,0,-71.435302511786261,0,39.814785507167784,0,3.4161111962469519,0,254.99851203013461,4.0789861694189398,8.7016643812047345,1.3464185828687469,1.1243108265093980,0.81755500597350883,0.72011157992481156,432.75662814758465,4.3904584619141540E-002,113.12566623380408,206.82979745612667,247.52244248762676,309.86872591297663,93.085997327690976,72.120333333333335,0.47333333333335759,1.7583600663114909,1.0620795305039792,0.25408258027177133
20221020023000,421.49065435607099,4.7732456224891520,0.61761205556727061,0,-76.987115367568478,0,31.946999562811953,0,2.7330508396055406,0,262.49161332162572,4.1678106585126455,9.6055094787161188,1.4648955277460451,1.1175157539984204,0.86437801898003874,0.72333070978296055,406.86311371704517,4.6698752871496822E-002,108.58290375749840,198.52417880965868,237.58273825240590,297.42539569869245,93.056935868489589,67.843666666666664,0.99466666666666015,2.1058926104447386,1.6057485266792355,0.22756276104047829
20221020030000,421.30567611009803,4.7506279462213135,0.45307168322015101,0,-57.681134307726957,0,25.985590300030196,0,1.8659150908438173,0,262.28542103901009,3.8185224961633688,9.0478640034558779,1.3790294414865103,1.0503221897258794,0.77469592698980205,0.62002023574719900,341.93545889959557,5.5566041793808453E-002,104.77907805957565,191.56957226587264,229.25985045078966,287.00612780086374,93.028170743055554,65.816333333333333,1.3460000000000036,2.2959738686337370,1.9408945176866723,0.15981867926393781
20221020033000,421.47994453637250,4.8000201941336247,0.44866596533091124,0,-41.021509332832082,0,26.358667105245654,0,1.7513677852585514,0,259.77680485395325,3.4339805700762307,8.5455005712366994,1.2349320423920507,0.99499097731255259,0.77879051724118442,0.61722080481067088,474.24928025944166,4.0063318577111824E-002,103.96108925349968,190.07402784421674,227.47006574544255,284.76552973334850,93.007779626085082,65.855666666666664,1.4786666666666406,2.3152841963740971,2.0416924099392872,0.13225868367252908
20221020040000,421.77137937177531,4.8240427725874406,0.39012544729098503,0,-32.211239452772389,0,21.107990277942090,0,1.3082797917243816,0,261.51556793600912,3.3480520084063046,7.6761011365442453,1.1943385897802719,0.82243735704483889,0.65816773524743943,0.57557733785011478,489.74532616597344,3.8795673965372257E-002,112.47825705618733,205.64612699887638,246.10589126395124,308.09537187501803,92.998289334635416,66.188000000000002,1.4766666666666879,2.2924200125993908,2.0417310553656876,0.11737490392430676
20221020043000,422.13985385368164,4.8381828628027890,0.31974688850795396,0,-29.398229220566527,0,16.048543693514389,0,1.4512890924325548,0,265.79843433356541,2.8893409345816217,6.9199897296618627,1.0646757416722215,0.81216636448915258,0.63049852235754367,0.52103310494659583,398.00620556481817,4.7737949143372621E-002,107.49787907392897,196.54040763721980,235.20867082122365,294.45334499194206,92.982692918570805,66.836333333333329,1.3793333333333067,2.2328050357666682,1.9447087068851374,0.10810738623607888
20221020050000,422.26144206653072,4.8446595098866077,0.23968148688112631,0,-21.989684841548364,0,13.506589089204125,0,1.0055579552240261,0,258.42467668116495,3.0963293418274564,7.0497403174667781,0.97303322910804702,0.76371214999034187,0.56154955551321784,0.45124127769651479,345.51561808472337,5.4990278313095060E-002,105.11664371045569,192.18674993672377,229.99845449342189,287.93077241629521,92.936094625434023,66.770666666666671,1.4046666666666852,2.2413004237900473,1.9516869744194878,0.10824517745681590
20221020053000,422.36220145446862,4.7970184004294572,0.28201173731655832,0,-30.810434530038037,0,16.627333114458548,0,1.4738004335260844,0,261.13631789937489,3.0263028633677918,6.7235397691865071,1.0248226037357631,0.77771616776852159,0.59218394994155121,0.48957482912306022,314.86108259061490,6.0344072515001686E-002,107.53376671986422,196.60602169976704,235.28719409602729,294.55164681408547,92.906864495510163,65.916333333333341,1.4420000000000073,2.3050955643864479,2.0000234086219848,0.13239124897317900
20221020060000,422.15671691272973,4.7426588043128577,0.33981631745235796,0,-42.280470630662073,0,29.573084704622438,0,1.9927112792748931,0,250.16485620503363,3.5784528394078361,7.5380593387225456,1.0863035259293852,0.86969493922688934,0.65871086001208445,0.53784246675678526,304.05128085519641,6.2489458839177517E-002,106.46898479560845,194.65926074745050,232.95741844578936,291.63504416122339,92.836233278645821,64.025333333333336,1.6783333333333417,2.4745760344810894,2.2067197977701767,0.13474324431857104
20221020063000,422.02783289966322,4.6502527358196533,0.31721652571532089,0,-43.265767564195478,0,26.880605415437099,0,1.6800176160015523,0,250.78918941327106,3.0820190172602624,7.0939714997817473,1.0231245885217417,0.81125651547665079,0.57319069950317292,0.51998853477320583,268.40618571004273,7.0788234443022721E-002,115.82721289233126,211.76908636202913,253.43350979600311,317.26868075030006,92.788138744574653,61.741333333333330,1.9036666666666520,2.6744798239059175,2.4332362408108565,0.16453933968665799
20221020070000,422.13264826249673,4.6604574896706836,0.30998969466540488,0,-38.008199976633641,0,25.083019822321287,0,1.6897317093407964,0,249.36684188382895,2.8386910656815507,5.7659780748638854,0.94147188767933443,0.76288603957065715,0.57359071036917653,0.51431749599524346,295.54638856545614,6.4287708241753644E-002,114.75146829659883,209.80228214988850,251.07974748287572,314.32204964186138,92.743750995991718,61.084333333333333,2.0773333333333426,2.7543829629052516,2.5953298879303475,0.13189589644788727
20221020073000,422.41092865651513,4.6745114349951091,0.19655500567896697,0,-32.860732554577091,0,24.409437418041403,0,1.5290947063804807,0,251.63975668059589,3.0403464565915277,7.5185274140639597,1.0052977476897076,0.75790080575205654,0.53367358431988909,0.40963410463651850,172.65542562131913,0.11004577430235080,101.33307465404049,185.26917899413795,221.71988884741779,277.56699059783460,92.701628905381867,61.259666666666668,2.0729999999999791,2.7411247127332432,2.5927280916480413,0.13472700673667873
20221020080000,422.46179904627161,4.5729265434529847,0.46559893349762793,0,-52.111254888693217,0,35.519084451070334,0,2.5706265833334085,0,257.76631647964047,3.0827449768525521,7.4736186740210755,1.3223167380196137,0.90556309479820818,0.65452377992943100,0.63058792272600905,397.05325296911752,4.7852523201661827E-002,121.53771721154889,222.20970952949901,265.92826915510000,332.91063678580633,92.666125399739585,59.847000000000001,2.0866666666666447,2.8438541717444745,2.5997274161445034,0.13846750192684881
20221020083000,422.98014714945555,4.5491483134244586,0.41621559997787122,0,-35.381082431904623,0,25.294597464735116,0,1.6268765938678571,0,262.20537671426030,3.4439059610114806,8.1487527408199707,1.1986547005163108,0.90391405353326615,0.73503398772755202,0.59616607246056397,494.06096385346819,3.8456792562213321E-002,105.90166016870458,193.62201039056077,231.71609468603000,290.08105411484058,92.638922642144109,60.023666666666664,1.9683333333333621,2.8075047983053030,2.4979794099596120,0.11488909793199228
20221020090000,423.35126671084299,4.4638437707297633,0.50654474073742295,0,-43.643860638550926,0,27.452173547714992,0,2.1914372150124328,1,265.28926673783872,3.3178606183553794,7.6608933951577054,1.2766900483331325,0.93156607882698206,0.72327103728538433,0.65760103987494667,537.45940318438488,3.5351507271855688E-002,116.03367121990495,212.14655803134016,253.88524697655888,317.83420209527196,92.620447994221593,59.372666666666667,1.8533333333333530,2.8298544913076831,2.3754749256129344,0.12601979889037421
20221020093000,423.92138295775192,4.3950548642361031,0.35061510108135507,0,-35.132870744161515,0,21.771023058450698,0,1.8798099113839015,0,255.32757674837342,3.1907076440743136,7.3981482402129419,1.1292272680921365,0.84014741948823146,0.64543312421536336,0.54712156542212576,384.39592323931879,4.9428203712168148E-002,109.70867412252623,200.58244608297210,240.04595848976535,300.50905513951989,92.580119660590285,58.825333333333333,1.7596666666666465,2.8488147749350659,2.2436725429959097,0.11215396952938611
20221020100000,424.72784270159087,4.3272280031462911,0.31325345023607110,0,-29.890746327237924,0,22.770309187645829,0,1.0049404412203522,0,263.65059452568136,2.7420354030596950,6.2326760247830100,0.97167646384343409,0.82815196916166589,0.62699975680965803,0.51699160496965324,381.20467503465937,4.9841991046601170E-002,107.30693607693451,196.19130294056851,234.79088166191568,293.93032254115360,92.582891221788188,58.557666666666670,1.6066666666666833,2.8360731848001799,2.1018402489556252,0.10727090151651289
20221020103000,425.38520906294275,4.3681585055142422,0.21383247046016363,0,-25.205015178917918,0,8.5750691230589631,0,0.53357136449233433,1,267.55884435602314,2.7603027446382846,7.3182165572838027,0.91476203483445384,0.76224770573888068,0.53300202572160504,0.42700436763745148,254.75579567898023,7.4581227678690576E-002,104.86188634998867,191.72097223109728,229.44103754107289,287.23295253745607,92.603042192491330,59.642666666666663,1.4850000000000136,2.7378240346580127,2.0067943878174219,0.10294978193256073
20221020110000,425.81898708861667,4.4450601631157580,0.20868169591020960,0,-25.883861600218420,0,10.675843891288299,0,0.75668628927034587,0,265.77144970888412,2.4543148566091406,5.3617694359075498,0.84252853193788146,0.64889694817495780,0.47798276453894190,0.42187144588642628,239.24263784083189,7.9417281850238997E-002,113.31025463759399,207.16728392970651,247.92632760125377,310.37434214848656,92.605275766710065,60.466666666666669,1.5373333333333221,2.6920136543743896,2.0486132634480896,9.9342568209778465E-002
20221020113000,426.31980303733553,4.5349330557163299,0.13385663441722823,0,-20.036448641956003,0,9.2320966483687226,0,0.59189924269091765,0,264.65027255086352,2.3704893498329418,5.2660888746453116,0.78010902197364551,0.64752367498723418,0.42453291985694724,0.33788512688292666,158.79919292476893,0.11964796325508559,104.31363078402396,190.71858619936938,228.24143747405935,285.73119560327751,92.613665090060763,61.563666666666670,1.5670000000000073,2.6228889534125090,2.0872963680691328,0.10095612547891569
20221020120000,426.76333797671339,4.4924172759311531,0.10398738108222381,0,-15.688752570308644,0,7.7489732489595884,0,0.55342229922487562,0,265.71342154129792,2.3289655193876531,4.5390025539274976,0.63815094927594374,0.58263288010202319,0.36922927050658555,0.29775336313046935,138.77722065710626,0.13691007724492199,105.41522558057891,192.73265282311229,230.65176082288630,288.74863441663535,92.607236321831607,61.506666666666668,1.4476666666666915,2.6043828149070265,1.9543953128390967,9.5226904764496814E-002
20221020123000,427.17531413822041,4.5270998729356533,7.3586709217420401E-002,0,-17.331060685766221,0,6.8997985898350560,0,0.52179301729280259,0,258.01120418774417,2.5487177300898560,5.1570600419851580,0.72173005942828816,0.76774558716182606,0.35568039221332476,0.25044943318825891,74.747470642051326,0.25418920315025356,94.576448804307987,172.91591202553724,206.93618335441028,259.05954561890138,92.584330429470484,62.545999999999999,1.3179999999999836,2.5105721719126763,1.8174136962891225,0.13144387556094672
20221020130000,427.57914016431454,4.4409221578964519,8.6263563167820662E-002,0,-16.420279011208049,0,7.4395651286827595,0,0.18034504698853432,1,272.35149807546941,2.2359966363257437,4.2454039510545929,0.61017995176014272,0.46855459947221917,0.34423455235606842,0.27094083642176020,99.929939544403808,0.19013320819189891,103.38818359201996,189.02657357614268,226.21653051011086,283.19625236861549,92.643748307255478,62.595999999999997,1.0486666666666906,2.4591058587903198,1.5547243585186834,0.10822994071403150
20221020133000,427.25014908883554,4.4450313383258395,0.11309922074785182,0,-12.009165245153490,0,9.4498520699077098,0,0.65881199892314168,0,275.26942010782057,2.3652532118414547,4.5226877748899765,0.68060094131226723,0.53946525678521184,0.37203646909381188,0.31026391159104066,205.23089339768507,9.2578654633553886E-002,108.28579751868438,197.98097384793186,236.93266064970197,296.61157568112174,92.675968210286456,62.018999999999998,1.1949999999999932,2.5234812029467846,1.6988824666341316,0.11403491284758688
20221020140000,425.86840367163660,4.5918000914416037,0.20509586886613360,1,17.831927732452289,0,11.933356976156587,1,1.4042774875990371,0,271.45364065044117,2.3004559027231206,5.1245313025399666,0.75367046295848572,0.67499235709965910,0.50893036031282257,0.41824590443063803,-338.58905926216750,-5.6115221328780183E-002,107.02212494403707,195.67057735378009,234.16770612970055,293.15018072351904,92.676160280381936,61.557666666666670,1.7516666666666652,2.6582454192917009,2.2012464718289948,0.22524691599362864
20221020143000,424.40691524537385,4.9236202851807684,0.10210074778273240,0,27.305983495934921,0,4.1626202166303514,2,1.6954569900117855,1,292.75307463647948,2.0471057645064743,5.5872482228626668,0.72919651619347592,0.69343780379859088,0.47380815754709160,0.29539055324017532,-77.910407177940726,-0.24386985883164003,85.800566367269681,156.87080000648402,187.73428224639378,235.02104401214109,92.694256086734939,63.417666666666669,2.3143333333333089,2.6333888881376537,2.7826078111068000,0.19797597076141882
20221020150000,422.63937190032254,5.1262756909649383,0.33801284617733773,0,93.227948126041156,0,28.380289828291719,0,-0.25054573348185588,2,311.85966010724701,1.7786275205876638,5.6956745445730697,1.0094247194045809,0.89724439276801693,0.57947938685553413,0.53809685365241211,-137.95101536969463,-0.13773004822822030,118.00838541182080,215.75696537695140,258.20598245835293,323.24325020135410,92.696594757378463,63.112000000000002,2.9499999999999886,2.7781480421321940,3.2299258744981785,0.25455284110484755
20221020153000,421.58970868566325,4.8780241443415511,0.14262225808250853,1,88.629495055091752,0,34.993978010059926,0,-1.4346675267962190E-002,2,301.71560659947130,1.9704753181875316,5.4134066737071524,0.84565927654414930,0.96993650445407675,0.60240749259189152,0.34972818985593701,-39.837032933778545,-0.47694315065039783,81.045166711732989,148.17641277923175,177.32932131285514,221.99526762093129,92.696265526909713,58.650333333333336,3.2843333333333362,3.1887773093406526,3.4867572750515592,0.25253814309913797
20221020160000,420.25244023956793,4.6514673699840827,0.25471301971038374,1,141.48640041799717,0,40.178164167518510,0,-1.5148274316379142,1,273.65376590806693,1.6037565225376851,4.7487705935730355,0.94823229320890690,0.73213635314592385,0.59477317594979329,0.46773887556675664,-59.701014398047242,-0.31825254883142273,103.31813892907707,188.89850959268361,226.06327062990809,283.00438918508058,92.703823642482078,54.065333333333335,3.7649999999999864,3.6645933536380380,3.9304864538241873,0.33673262344433280
20221020163000,419.45657014299883,4.4823521885308990,0.42764887510734340,1,97.863901325894716,0,44.916081882618023,0,-3.2133432332112677,1,264.22254588139140,1.6575102872189826,5.3415041590663472,0.99632958937658056,1.2063016922181475,0.56903601590336306,0.60680778677782810,-188.46299052398737,-0.10081554976483141,131.82082093614923,241.01050276579011,288.42801686934683,361.07765100685259,92.708625845920139,49.573666666666668,4.4733333333333576,4.2281360010687727,4.5557175589667622,0.33461734476976279
20221020170000,419.96592321293593,4.5589282779494997,0.19333777942457878,1,88.698713478032914,0,48.627850584919564,1,-9.2586439856792144E-002,2,254.76478002970293,2.0225108733362434,5.7445430400489821,0.92535409780208355,1.1645505823363163,0.54747437342871719,0.40828086796099788,-63.341269869331768,-0.29996241059258139,99.021861682609597,181.04354455879192,216.66288367040241,271.23622020227577,92.715729879557287,49.073666666666668,4.8616666666666788,4.3875952774047349,4.9192220365736716,0.32981105348261930
20221020173000,419.26103878172603,4.4236766224799098,0.17980293317923576,1,122.64257526095491,0,36.729024559394752,0,-0.49177400727902415,1,250.34609002750631,1.3983095812519002,5.2484291311881579,0.98755515538873972,0.91227417189641058,0.57153062002366561,0.39411088870769523,-41.200587587518001,-0.46115847157859902,93.007515798826560,170.04740210599971,203.50330960837994,254.76199504848913,92.706170967881945,45.909333333333336,5.3846666666666465,4.8331452024149000,5.3868577524821148,0.34769009362587311
20221020180000,418.73734383779248,4.2546682761562993,0.28654688860373345,1,144.88538684468838,0,70.366926428114127,0,1.5569674169750012,0,237.52103809163350,1.4207539177476134,5.2244524625913629,0.94935599961631179,1.1894120561765036,0.68130564255130099,0.49813858635791508,-70.407114643672287,-0.26985909160115812,97.467866181727956,178.20234516173559,213.26269364457727,266.97958577116907,92.678788864366325,42.287666666666667,6.0036666666666747,5.3829140451584223,5.9412935384114576,0.37612922550330019
20221020183000,418.37421993646649,4.1809179750782590,0.50803364335828338,0,152.41883894929344,0,27.773456211419610,1,-1.9634464604274071,1,242.18358349127402,2.3104633221939004,6.9541304454968342,1.2473430960661516,0.98528160566863066,0.70100139939077655,0.66390333930350853,-158.42936151349232,-0.11992726486107755,119.88467611655200,219.18742319742793,262.31136431831072,328.38270112768765,92.669975950086808,40.130000000000003,6.5076666666666370,5.7818560547700404,6.4681218702529009,0.40130316020652396
20221020190000,418.00119186943408,4.1622660298292855,0.37502003681777618,0,112.03180697464994,0,52.764253182130496,0,0.30848042051939473,0,239.82929875948233,2.5288069979630561,6.8187518793312245,1.2292838605436776,1.0220505345350839,0.68513678667236022,0.57120915711898956,-137.25012197272747,-0.13843339245829908,108.26029332792451,197.93434405307838,236.87685669467811,296.54171575137008,92.641516159939229,38.059333333333335,7.2093333333333476,6.2772101243053626,7.1360511355929930,0.36965921706368299
20221020193000,417.90306637468257,4.0373251433252273,0.20762819159527263,0,80.027041179326687,0,52.941544295863686,1,0.98843963644440469,1,233.50589772841045,2.0504690177256855,5.8115159934869887,1.0210235390354703,0.97941390641446879,0.60723690034817890,0.42548436340647466,-79.390348634497528,-0.23932380102616052,94.205283203247518,172.23730292960178,206.12406158575700,258.04286553442233,92.608536034505207,35.605333333333334,7.7333333333333485,6.7638827109068584,7.7155757471720676,0.28772790770686180
20221020200000,418.67046243395936,4.2870442111258837,0.40562231020783346,0,95.884005605644731,0,44.584527105676678,0,-0.53066224183073429,1,232.79987357349657,2.6958226525607443,8.7883740918685600,1.2285172039362025,1.1554025315291818,0.74765492649123122,0.59521289814879852,-181.42763754107173,-0.10472494851121436,104.33542929383420,190.75844082758061,228.28913328501412,285.79090509880206,92.625764726028592,36.534333333333336,8.2393333333333203,6.8999176525339321,8.1642739991265785,0.28231845172192016
20221020203000,418.93372475512740,4.6572925012458573,0.37967375348129684,0,118.68351060285869,0,52.473507428791194,0,-0.43554792058077541,1,236.89405966604562,2.7356288801604527,6.6450192596621633,1.3145023012439943,1.1650822939831393,0.74776317752897747,0.57621399025163367,-133.00686678406723,-0.14284976753001744,101.65077135448237,185.85002988671144,222.41501901444028,278.43721107980036,92.641278804904516,38.754333333333335,8.5933333333333621,6.8203966316664095,8.5752904832628474,0.30279311931096770
20221020210000,418.56553083552348,5.1724428169001406,0.34151836806340935,0,71.724251824875566,0,30.451324964253697,1,-0.32847780475465993,1,243.11144885410638,2.2758598468041860,5.9912273937023306,1.0457806482629213,0.91807881128365809,0.66441981389703186,0.54684583413953525,-188.14483771999591,-0.10098602879700851,107.15014573093482,195.90464018236500,234.44781955503612,293.50084949257092,92.644896622512007,42.124666666666663,8.9119999999999777,6.5855296051453500,8.9905926444833995,0.22849320616178312
20221020213000,417.85234112088858,5.6213560023415203,0.15344860904773283,0,18.417394526396187,0,19.958211270644505,1,-1.1039381228361140,1,237.26090143380245,2.1933422739896797,5.4245864260000429,0.81158276878033575,0.66424525250288369,0.47212910419804005,0.36661872559825970,-220.78429514671728,-8.6056845607492022E-002,102.27700359416973,186.99498214738887,223.78523444558348,280.15255820391366,92.632146411241322,45.740333333333332,8.9230000000000018,6.1786997723272474,9.2045021667480569,0.11820999726557961
20221020220000,417.68474547879259,5.8622345202695856,0.20700686741019941,0,14.644239179720234,0,14.979133391502295,0,-1.3641645329790242,0,227.40378849131511,2.0595792339277561,5.2823937446567086,0.84687674589292361,0.69509437504608207,0.49164812523614582,0.42607866163954583,-435.81722726336989,-4.3596257356109648E-002,111.66658065539329,204.16212366731426,244.32991829581087,305.87206446352525,92.611366689887163,46.878000000000000,9.1773333333333653,6.1538839753211620,9.3994955741034687,9.5255879098034665E-002
20221020223000,418.00076100346098,5.8794740374377783,0.18774666511397187,0,-16.397656155787683,0,13.299267778933642,0,-0.60824751807088440,0,205.37334128565607,2.2940652761160085,6.0570982405000633,0.99376493119411113,0.71205129171527148,0.51209086199920817,0.40580418558188291,336.23227936405641,5.6508554252840487E-002,103.95143684026739,190.05638015434880,227.44894596795353,284.73909027809617,92.601944406180507,46.972000000000001,9.1896666666666533,6.1481047385069658,9.4847597797556773,0.16032127807754404